Theta_e
311 311 311 311 311 309 318 325 313 320 319 308 310 306 315 309 315 316 315 314 313 309 310 307 309 307 310 316 315 309 309 302 300 302 309 310 304 300 299 292 292 294 292 294
311 311 311 311 310 309 314 319 320 320 320 307 309 314 314 315 313 313 313 311 312 311 308 303 310 309 313 315 313 308 309 301 293 297 303 308 302 302 302 299 297 293 290 294
311 310 311 311 311 310 312 322 314 314 315 315 312 311 310 310 315 312 312 310 310 308 307 308 305 308 313 316 314 320 315 303 299 293 298 302 301 301 301 297 290 295 295 298
311 311 311 311 310 310 318 325 315 320 310 312 314 311 312 309 309 314 312 310 311 309 305 308 308 311 309 314 314 312 309 302 303 303 303 303 302 301 301 297 298 294 297 296
311 311 311 312 310 310 328 319 316 320 313 314 313 310 311 311 311 311 310 309 312 311 305 305 304 308 311 309 312 307 309 300 304 302 306 304 301 302 301 302 300 298 298 296
311 311 312 312 311 314 323 324 326 323 310 311 310 308 311 313 314 313 316 315 311 309 309 310 308 308 309 308 307 306 305 301 301 296 304 303 295 300 300 301 300 299 293 295
311 312 312 312 312 311 316 324 323 320 312 313 312 314 315 312 312 311 315 315 311 314 316 313 311 310 311 311 309 308 305 304 304 297 302 289 301 305 306 303 304 303 302 302
311 311 312 312 312 312 316 327 325 323 312 315 315 315 313 313 315 314 314 316 317 317 311 304 302 302 303 310 312 309 311 304 296 294 295 299 303 305 302 301 299 304 303 303
311 312 312 313 313 312 317 328 330 327 317 312 319 316 316 313 312 311 314 318 317 315 307 304 295 295 302 301 308 310 310 308 302 297 293 290 301 306 309 307 295 304 304 302
311 312 313 313 313 313 313 322 335 327 314 316 316 312 312 318 317 312 315 314 314 315 306 302 300 302 309 300 300 299 302 301 298 297 295 300 307 308 309 292 294 306 303 302
311 312 313 313 314 313 312 322 332 325 314 314 317 317 311 313 314 310 313 313 314 309 305 305 304 303 302 303 304 301 300 299 297 298 294 292 310 307 299 302 305 305 303 302
310 312 313 313 314 313 314 322 326 329 318 315 320 319 319 318 319 315 317 315 313 313 306 309 308 301 302 301 297 308 299 304 298 299 298 308 308 307 308 307 304 303 302 303
310 311 312 313 313 313 312 319 324 326 317 314 313 312 318 320 320 326 317 314 316 314 316 308 309 302 305 298 300 304 308 309 302 301 307 307 309 309 309 307 304 304 305 305
310 311 312 313 313 313 313 320 322 325 322 310 311 318 314 320 320 322 323 321 323 320 318 313 309 304 309 303 305 304 308 308 304 302 308 309 308 308 308 308 307 305 305 306
310 311 312 312 312 311 313 322 320 320 319 309 309 315 316 317 318 319 319 320 319 316 311 310 307 309 307 309 306 304 309 307 302 300 307 305 305 307 311 307 304 305 305 305
310 311 312 311 311 310 320 318 319 314 321 318 304 313 316 317 318 317 315 315 317 315 312 311 311 315 312 305 301 310 311 313 313 307 310 310 310 313 311 307 305 306 306 307
310 310 310 311 310 314 313 310 313 310 318 319 307 306 316 320 318 315 312 315 313 313 313 309 311 312 310 304 299 307 310 313 312 315 314 309 312 308 310 308 306 308 307 309
309 309 310 310 310 311 315 319 312 313 321 320 307 306 309 319 312 308 315 308 310 310 309 311 310 310 308 300 306 310 311 312 311 312 312 314 313 314 311 310 309 308 306 307
309 310 310 315 317 315 315 316 316 322 321 311 312 306 301 314 310 310 311 315 302 311 305 308 311 305 299 304 306 308 310 309 309 311 311 310 309 310 311 311 308 306 308 308
310 313 316 309 311 316 318 321 317 318 317 317 309 311 304 312 311 309 310 310 306 303 306 312 305 302 309 311 311 311 311 312 311 308 306 308 308 309 309 310 314 312 308 308
319 315 311 316 316 317 316 307 307 307 305 310 310 309 307 312 305 307 308 305 306 302 304 305 302 300 307 311 312 313 312 311 311 311 311 310 310 310 310 311 314 315 313 308
308 306 313 319 315 307 306 303 306 307 304 308 306 305 308 310 311 308 308 304 305 302 310 304 298 304 309 311 310 311 311 310 309 312 310 312 313 312 311 311 313 314 314 312
317 314 313 306 307 297 301 300 303 304 308 309 310 307 308 313 311 308 305 302 302 309 303 298 301 306 308 309 309 309 310 310 310 309 310 311 313 314 313 311 314 314 312 312
313 306 292 303 303 304 304 304 305 310 310 309 309 308 306 308 305 304 302 304 303 298 296 297 304 306 308 309 310 308 308 309 308 308 309 309 311 312 313 312 313 314 311 312
309 309 294 303 308 308 309 309 308 309 311 310 308 309 307 304 303 303 301 299 298 299 297 303 307 309 309 308 308 307 307 308 308 307 307 308 310 310 310 311 312 312 312 311
311 312 306 308 307 305 306 306 306 310 309 310 311 305 301 301 300 301 300 298 296 299 303 306 309 308 308 307 309 310 309 309 309 308 309 308 308 308 308 311 310 310 310 311
309 309 311 309 307 305 305 306 306 310 308 303 305 301 299 303 299 299 302 298 301 304 307 310 310 308 307 307 308 308 310 308 308 309 310 308 308 308 307 306 306 308 310 309
Wind_Speed
24 24 24 25 27 32 2 2 3 4 4 3 3 3 4 3 3 5 6 8 9 7 8 7 6 7 6 8 6 3 6 2 3 5 8 7 8 6 5 5 3 4 5 0
24 25 26 24 22 17 4 2 4 2 5 1 4 6 5 9 13 8 8 7 7 5 2 3 6 7 7 6 6 3 5 3 4 3 9 6 6 7 7 5 7 5 6 3
25 26 26 28 23 13 2 2 4 5 2 3 6 1 5 6 8 8 8 6 7 4 6 2 3 7 6 7 5 5 5 3 1 3 3 2 7 8 7 7 5 9 6 8
25 26 28 30 32 25 3 1 1 1 3 6 6 7 3 8 4 2 8 8 12 8 9 8 11 10 4 5 5 3 4 4 6 5 6 6 9 13 14 10 9 7 5 8
25 26 28 30 34 31 2 3 4 6 2 6 7 7 8 10 10 9 7 7 8 12 8 5 7 7 6 3 4 3 2 3 5 3 7 20 18 15 13 13 12 11 8 5
24 25 26 28 31 23 5 5 5 1 4 3 4 1 7 11 6 9 17 14 12 11 7 6 6 5 3 1 3 2 2 2 4 5 3 5 9 11 12 13 11 8 7 4
23 23 24 25 24 19 2 2 3 3 5 5 6 8 13 11 10 10 15 12 8 7 10 7 7 8 3 5 5 5 3 3 3 5 1 6 4 11 14 17 14 12 9 9
22 22 23 23 23 22 3 4 4 3 4 12 13 12 7 9 9 10 10 6 2 5 7 4 1 3 1 8 5 6 6 4 1 4 4 7 13 9 3 4 6 7 8 9
21 22 22 22 23 24 3 1 2 2 1 11 11 7 14 5 3 5 7 4 3 2 1 2 3 3 4 1 3 9 13 13 3 2 5 4 4 13 15 7 4 7 9 8
21 22 22 22 22 22 5 4 2 2 5 9 12 6 6 6 7 5 6 5 7 5 3 5 4 6 6 8 9 7 5 7 8 5 5 4 7 13 6 9 4 7 9 7
20 21 22 22 22 21 10 5 6 4 7 8 10 8 11 5 5 4 6 4 8 6 8 5 5 6 8 6 5 3 2 2 3 6 6 3 8 7 7 2 6 8 8 8
19 21 22 23 23 22 18 4 9 4 6 5 5 7 9 7 5 1 6 4 6 2 4 5 6 3 3 5 3 2 4 3 3 5 3 5 4 8 6 8 7 6 6 6
18 19 20 21 22 20 12 3 6 4 3 5 5 7 7 8 4 2 3 3 2 2 2 1 4 6 3 2 3 1 6 9 5 6 6 7 7 6 8 7 6 7 7 8
18 18 18 19 20 19 12 4 6 2 3 4 3 7 7 6 6 5 4 2 4 2 1 2 4 4 3 2 3 7 3 4 4 4 6 7 6 6 6 6 8 8 8 7
18 18 18 18 19 19 7 3 4 4 2 2 3 4 3 4 5 4 3 1 1 1 3 3 5 5 4 2 3 8 4 4 4 1 3 5 2 4 6 8 8 7 7 8
19 18 17 17 19 20 1 2 1 8 4 2 3 2 1 1 3 5 6 4 2 1 3 1 4 5 10 4 3 7 9 6 3 1 3 4 5 7 8 9 8 5 7 8
18 18 16 15 12 5 3 1 4 9 2 1 3 2 1 4 2 1 2 3 2 2 1 4 5 4 7 4 4 5 8 6 9 10 6 1 5 3 8 10 7 4 5 9
18 18 17 16 12 3 1 2 7 5 3 2 1 1 1 4 2 1 1 0 3 5 1 5 4 4 5 4 4 6 8 8 9 9 13 6 5 5 6 8 7 8 8 7
16 17 17 4 1 3 2 5 9 3 1 2 3 2 1 2 2 3 2 1 2 2 3 4 5 3 5 3 5 6 7 7 8 8 9 9 9 10 3 7 9 8 7 9
14 2 3 2 2 4 8 2 2 2 2 2 4 6 3 4 4 1 1 1 3 2 0 5 5 3 3 5 5 6 7 7 8 7 8 8 9 10 10 9 6 6 8 9
2 4 3 4 1 2 2 1 1 2 3 4 2 4 4 4 3 3 1 3 1 2 2 6 3 3 4 7 8 8 9 11 11 10 10 10 10 12 12 14 14 15 6 9
2 4 6 4 3 3 2 1 2 5 4 3 3 2 1 3 1 2 4 3 2 3 2 6 3 2 5 7 9 9 8 10 10 12 13 14 14 13 12 12 10 14 11 7
3 3 2 5 1 3 3 3 3 4 3 4 4 1 2 2 1 3 2 2 2 1 5 4 3 3 7 7 7 7 7 7 9 13 12 12 12 12 12 11 12 14 11 4
3 1 5 2 1 5 5 7 5 3 4 5 4 2 1 2 4 2 3 3 2 2 5 3 1 4 5 6 9 9 11 10 10 9 11 11 13 12 11 9 10 11 8 9
3 1 2 5 4 5 5 5 6 6 6 4 5 1 2 1 2 2 4 3 5 5 3 3 2 6 7 6 6 6 6 6 3 2 5 8 9 10 11 12 11 7 9 6
3 3 2 3 5 7 8 7 5 5 6 6 3 3 3 3 3 3 4 5 5 2 3 4 5 6 3 1 4 6 6 6 6 1 0 3 6 7 9 10 12 9 7 8
3 3 3 7 7 6 5 5 5 6 5 4 2 4 3 4 3 5 5 3 2 4 3 3 4 4 2 2 4 6 6 6 6 5 6 4 3 5 6 9 10 12 11 7
Wind_Direction
356 354 356 358 356 343 45 345 338 218 110 79 204 234 204 320 80 40 39 67 39 37 37 13 115 79 60 23 34 15 320 96 331 77 47 22 71 58 66 82 315 107 117 68
356 354 356 358 3 9 329 314 254 298 93 331 303 240 138 57 12 48 32 51 28 50 78 30 68 112 82 56 55 42 316 9 11 346 11 353 63 53 56 48 43 5 106 140
357 355 355 354 357 352 228 311 344 343 53 265 270 351 80 75 30 38 24 28 353 5 40 121 313 116 88 72 85 356 53 12 182 155 89 318 85 84 67 94 65 69 95 120
359 356 358 356 348 351 171 306 294 175 359 328 357 38 220 139 131 17 61 1 53 46 26 27 36 69 124 161 116 43 79 32 4 59 37 60 92 56 51 53 60 89 112 80
1 359 360 359 354 344 71 36 20 338 4 329 9 10 19 66 64 55 42 47 58 79 60 52 16 30 25 32 34 68 43 333 22 63 15 68 30 43 45 59 57 72 77 83
3 0 1 2 5 352 27 344 331 348 274 308 343 23 39 58 84 61 55 42 58 45 18 1 326 309 284 320 138 87 78 60 65 313 305 108 50 27 42 71 59 76 59 346
2 359 360 3 8 16 306 358 289 330 315 99 35 48 77 61 37 79 61 50 51 344 335 345 328 306 299 241 96 96 44 70 98 228 34 42 44 41 77 72 43 42 35 33
359 357 359 1 1 2 296 338 7 356 24 26 21 358 69 85 73 82 82 57 22 330 333 335 242 283 310 80 40 25 111 86 358 86 69 9 10 5 27 103 34 21 36 36
356 355 357 358 359 358 304 6 302 307 345 6 328 352 22 15 59 98 115 148 219 289 340 287 281 269 121 300 97 5 48 15 88 309 126 119 322 351 321 115 51 13 62 43
353 354 354 354 358 357 333 287 343 239 90 13 30 26 4 1 355 61 44 12 358 12 330 306 326 31 26 32 19 3 19 46 324 320 87 78 333 3 2 62 287 42 66 58
352 352 350 351 354 356 355 282 359 53 88 48 36 30 41 7 10 34 303 29 358 16 21 26 28 55 50 344 321 187 71 70 309 31 66 21 344 26 71 205 48 67 57 67
349 351 347 347 350 355 350 352 345 324 82 153 91 52 34 63 89 341 358 97 35 27 22 12 79 51 104 244 74 358 3 79 83 84 159 160 99 107 77 81 80 70 79 46
345 346 343 342 345 353 1 308 335 355 98 81 51 42 30 14 37 62 93 36 2 41 176 259 97 80 115 285 289 214 53 42 48 73 14 73 94 91 95 91 100 80 67 92
341 339 338 340 339 340 349 336 350 14 327 111 13 55 39 11 356 69 49 56 3 203 163 81 98 105 30 261 1 59 36 47 68 71 43 87 67 86 116 117 88 99 85 90
334 336 335 336 333 331 314 266 37 16 43 85 141 74 53 355 359 38 95 352 9 312 29 53 98 86 3 226 35 35 28 50 46 127 80 113 71 111 93 92 87 74 117 104
331 331 332 332 334 333 309 164 95 31 357 351 71 255 60 133 90 32 4 337 327 101 115 192 82 101 175 106 78 5 7 10 42 112 130 165 179 87 76 95 83 67 106 134
326 325 324 324 333 334 49 191 278 337 285 303 98 118 312 344 212 228 329 335 353 71 113 67 91 57 79 56 65 6 3 13 36 3 289 30 44 138 129 119 119 132 130 139
320 318 314 315 305 247 346 229 256 319 302 292 109 98 100 168 219 58 293 101 32 349 35 39 68 44 64 67 348 48 17 10 14 8 27 72 334 357 131 143 161 186 192 169
314 308 305 309 37 358 311 258 280 222 104 323 1 110 138 292 203 175 328 141 70 292 83 58 73 54 52 109 53 44 13 20 1 9 6 9 8 354 340 184 198 195 213 171
303 315 263 53 303 313 318 339 354 299 237 249 45 1 36 10 348 261 61 235 151 143 96 89 84 62 138 119 84 62 20 12 10 8 354 3 1 351 336 337 302 240 212 168
344 332 21 299 49 337 251 316 281 249 81 5 346 52 354 4 21 314 54 296 346 105 218 109 98 80 356 36 46 42 27 21 14 18 19 13 5 354 344 342 347 343 261 169
346 290 269 279 270 19 317 111 223 22 61 14 19 352 355 316 325 303 354 313 339 77 179 84 82 89 41 35 43 39 40 30 359 27 10 2 357 347 337 335 334 327 298 167
178 226 252 53 271 31 252 143 53 52 50 351 337 31 343 328 321 302 7 290 14 303 56 66 58 23 39 49 22 357 21 24 32 22 11 356 342 338 338 346 347 340 338 187
260 126 346 190 79 42 42 62 59 20 14 347 321 356 29 292 17 323 303 27 332 8 61 75 90 46 39 49 37 26 4 353 46 20 3 358 356 347 345 348 340 344 335 327
336 296 11 49 54 65 68 65 43 5 341 344 332 330 343 36 303 37 37 284 72 38 69 94 81 67 47 32 22 13 345 348 354 45 18 349 359 351 344 342 330 336 337 357
279 261 101 120 98 55 42 41 35 354 321 301 306 4 59 345 326 283 24 46 37 51 98 133 100 101 110 17 342 329 318 318 287 360 350 1 7 352 338 346 354 340 341 329
294 29 32 78 75 75 54 35 357 316 349 13 329 35 353 280 294 45 33 49 93 151 103 114 131 146 167 37 326 310 312 346 348 337 315 79 23 16 1 355 348 346 356 327